GW3762 Weather Reports


Display with metric or nautical units.
time (UTC)temp
F
wind
direction
speed
MPH
gust
MPH
rain 1hr
in
rain 24hr
in
rain mn
in
humidity
%
barometer
mb
20260905103958 60 47 1.0 3.0 0.00 0.00 0.00 92 1010.4
20260905103500 60 48 1.0 3.0 0.00 0.00 0.00 92 1010.4
20260905102958 59 20 1.0 2.0 0.00 0.00 0.00 92 1010.4
20260905101958 60 218 0.0 0.0 0.00 0.00 0.00 92 1010.1
20260905101458 60 218 0.0 0.0 0.00 0.00 0.00 92 1010.2
20260905100957 60 218 0.0 0.0 0.00 0.00 0.00 92 1010.1
20260905100457 60 218 0.0 0.0 0.00 0.00 0.00 92 1010.1
20260905095958 60 218 0.0 0.0 0.00 0.00 0.00 92 1010.1
20260905095457 60 218 0.0 0.0 0.00 0.00 0.00 92 1010.1
20260905094958 60 218 0.0 0.0 0.00 0.00 0.00 92 1010.1
20260905094458 60 218 0.0 0.0 0.00 0.00 0.00 92 1010.0
20260905093958 60 218 0.0 0.0 0.00 0.00 0.00 92 1010.0
20260905092958 60 218 0.0 0.0 0.00 0.00 0.00 92 1009.9
20260905092458 60 216 0.0 0.0 0.00 0.00 0.00 92 1009.9
20260905091957 60 216 0.0 0.0 0.00 0.00 0.00 92 1009.9
20260905091458 60 216 0.0 0.0 0.00 0.00 0.00 92 1009.9
20260905090458 61 219 0.0 0.0 0.00 0.00 0.00 92 1009.9
20260905090000 61 219 0.0 0.0 0.00 0.00 0.00 91 1009.9
20260905085459 61 219 0.0 0.0 0.00 0.29 0.00 91 1010.0
20260905084958 61 207 0.0 0.0 0.00 0.29 0.00 91 1010.1
20260905084459 61 207 0.0 0.0 0.00 0.29 0.00 91 1010.0
20260905083958 61 207 0.0 2.0 0.00 0.29 0.00 91 1010.0
20260905083458 62 207 0.0 2.0 0.00 0.29 0.00 91 1010.0
20260905082958 62 207 0.0 2.0 0.00 0.29 0.00 90 1010.1
20260905081959 62 186 0.0 3.0 0.00 0.29 0.00 89 1010.1
20260905081458 62 242 1.0 2.0 0.00 0.29 0.00 89 1010.1
20260905080959 62 242 1.0 3.0 0.00 0.29 0.00 89 1010.0
20260905080459 62 278 0.0 3.0 0.00 0.29 0.00 88 1010.0
20260905075958 62 78 0.0 5.0 0.00 0.29 0.00 88 1010.0
20260905075457 62 69 2.0 5.0 0.00 0.29 0.00 87 1010.0
20260905073458 63 80 0.0 2.0 0.00 0.29 0.00 88 1009.9
20260905072957 63 80 1.0 4.0 0.00 0.29 0.00 87 1009.9
20260905072458 63 80 3.0 5.0 0.00 0.29 0.00 87 1009.9
20260905071957 63 286 0.0 6.0 0.00 0.29 0.00 88 1009.8
20260905071457 62 123 2.0 6.0 0.00 0.29 0.00 88 1009.9
20260905070458 62 61 1.0 6.0 0.00 0.29 0.00 89 1009.9
20260905065958 62 46 5.0 6.0 0.00 0.29 0.00 90 1009.9
20260905065457 62 282 0.0 3.0 0.00 0.29 0.00 90 1010.0
20260905064957 62 282 1.0 3.0 0.00 0.29 0.00 90 1010.0
20260905064457 62 275 0.0 2.0 0.00 0.29 0.00 90 1010.1
20260905063958 62 275 0.0 1.0 0.00 0.29 0.00 89 1010.2
20260905063458 62 275 0.0 1.0 0.00 0.29 0.00 90 1010.3
20260905062957 62 275 0.0 1.0 0.00 0.29 0.00 90 1010.2
20260905061957 62 275 1.0 2.0 0.00 0.29 0.00 90 1010.4
20260905061457 62 275 1.0 2.0 0.00 0.29 0.00 90 1010.4
20260905060958 62 275 1.0 2.0 0.00 0.29 0.00 90 1010.4
20260905060458 63 275 1.0 3.0 0.00 0.29 0.00 90 1010.5
20260905060000 63 275 1.0 3.0 0.00 0.29 0.00 90 1010.5
20260905055459 63 275 1.0 3.0 0.00 0.29 0.00 90 1010.6
20260905054959 63 275 2.0 3.0 0.00 0.29 0.00 90 1010.6
20260905054458 63 275 1.0 3.0 0.00 0.29 0.00 90 1010.6
20260905053958 63 275 2.0 3.0 0.00 0.29 0.00 90 1010.6
20260905053459 63 275 1.0 2.0 0.00 0.29 0.00 90 1010.6
20260905052959 63 275 1.0 3.0 0.00 0.29 0.00 90 1010.7
20260905051959 63 275 2.0 3.0 0.00 0.29 0.00 90 1010.9
20260905051459 63 275 2.0 3.0 0.00 0.29 0.00 90 1010.9
20260905050959 63 275 2.0 3.0 0.00 0.29 0.00 90 1011.0
20260905050000 63 280 2.0 3.0 0.00 0.29 0.00 90 1011.1
20260905045500 63 288 1.0 3.0 0.00 0.29 0.00 90 1011.1
20260905044959 63 290 1.0 3.0 0.00 0.29 0.00 90 1011.1
20260905044502 63 292 1.0 3.0 0.00 0.29 0.00 90 1011.1
20260905044000 63 292 1.0 2.0 0.00 0.29 0.00 90 1011.1
20260905043459 64 292 0.0 2.0 0.00 0.29 0.00 90 1011.2
20260905042959 64 290 1.0 2.0 0.00 0.29 0.00 90 1011.1
20260905042459 64 290 2.0 3.0 0.00 0.29 0.00 90 1011.2
20260905041959 64 290 2.0 3.0 0.00 0.29 0.00 90 1011.1
20260905041459 64 292 0.0 0.0 0.00 0.29 0.00 91 1011.2
20260905040959 64 292 0.0 2.0 0.00 0.29 0.00 90 1011.2
20260905040500 64 292 0.0 2.0 0.00 0.29 0.00 90 1011.3
20260905035500 64 292 1.0 3.0 0.00 0.29 0.29 90 1011.3
20260905035001 64 292 1.0 2.0 0.00 0.29 0.29 90 1011.2
20260905034501 64 292 1.0 2.0 0.00 0.29 0.29 90 1011.1
20260905033000 65 292 1.0 2.0 0.00 0.29 0.29 89 1011.1
20260905032500 65 292 1.0 2.0 0.00 0.29 0.29 89 1011.2
20260905032002 65 292 0.0 0.0 0.00 0.29 0.29 89 1011.1
20260905031500 65 292 0.0 0.0 0.00 0.29 0.29 89 1011.2
20260905031001 65 292 0.0 0.0 0.00 0.29 0.29 88 1011.1
20260905030501 65 292 0.0 0.0 0.00 0.29 0.29 88 1011.1
20260905030002 65 292 0.0 0.0 0.00 0.29 0.29 88 1011.1
20260905024959 65 292 0.0 0.0 0.00 0.29 0.29 89 1011.0
20260905024500 65 292 0.0 0.0 0.00 0.29 0.29 88 1011.0
20260905023959 65 292 0.0 0.0 0.00 0.29 0.29 88 1011.0
20260905023459 65 292 0.0 0.0 0.00 0.29 0.29 88 1011.0
20260905022959 66 292 0.0 0.0 0.00 0.29 0.29 88 1011.2
20260905022500 66 292 0.0 0.0 0.00 0.29 0.29 88 1011.2
20260905021959 66 292 0.0 0.0 0.00 0.29 0.29 87 1011.2
20260905021500 66 292 0.0 0.0 0.00 0.29 0.29 87 1011.1
20260905020500 66 292 0.0 0.0 0.00 0.29 0.29 86 1011.2
20260905020003 67 292 0.0 0.0 0.00 0.29 0.29 86 1011.2
20260905015001 67 292 0.0 0.0 0.00 0.29 0.29 84 1011.3
20260905014500 67 292 0.0 0.0 0.00 0.29 0.29 83 1011.3
20260905013500 67 292 0.0 0.0 0.00 0.29 0.29 83 1011.3
20260905013000 67 292 0.0 0.0 0.00 0.29 0.29 84 1011.2
20260905012459 67 292 0.0 0.0 0.00 0.29 0.29 84 1011.3
20260905012000 68 292 0.0 0.0 0.00 0.29 0.29 84 1011.2
20260905011501 68 292 0.0 0.0 0.00 0.29 0.29 84 1011.3
20260905011000 68 292 0.0 0.0 0.00 0.29 0.29 83 1011.2
20260905005500 68 292 0.0 0.0 0.00 0.29 0.29 82 1011.4
20260905004959 68 292 0.0 0.0 0.00 0.29 0.29 82 1011.4
20260905004459 68 292 0.0 0.0 0.00 0.29 0.29 82 1011.4
20260905003459 69 292 0.0 0.0 0.00 0.29 0.29 83 1011.4
20260905003000 69 292 0.0 0.0 0.00 0.29 0.29 81 1011.3
20260905001459 69 292 0.0 0.0 0.00 0.29 0.29 81 1011.3
20260905001000 69 292 0.0 0.0 0.00 0.29 0.29 81 1011.3
20260905000459 69 292 0.0 0.0 0.00 0.29 0.29 81 1011.2
20260904235459 69 292 0.0 0.0 0.00 0.29 0.29 81 1011.1
20260904235000 69 292 0.0 0.0 0.00 0.29 0.29 81 1011.0
20260904234459 69 292 0.0 0.0 0.00 0.29 0.29 81 1011.0
20260904233459 69 292 0.0 0.0 0.00 0.29 0.29 83 1010.9
20260904232959 69 292 0.0 0.0 0.00 0.29 0.29 82 1011.0
20260904232459 69 292 0.0 0.0 0.00 0.29 0.29 83 1011.0
20260904231459 69 292 0.0 0.0 0.00 0.29 0.29 82 1011.0
20260904230959 69 292 0.0 0.0 0.00 0.29 0.29 81 1010.9
20260904230459 70 292 0.0 0.0 0.00 0.29 0.29 82 1010.9
20260904225959 70 292 0.0 0.0 0.00 0.29 0.29 81 1010.9
20260904225500 70 292 0.0 0.0 0.00 0.29 0.29 82 1011.0
20260904224959 70 292 0.0 0.0 0.00 0.29 0.29 82 1011.0
20260904224500 71 292 0.0 0.0 0.00 0.29 0.29 81 1011.0
20260904224001 71 292 0.0 0.0 0.00 0.29 0.29 81 1011.0
20260904223000 71 292 0.0 1.0 0.00 0.29 0.29 80 1011.0
20260904222459 72 292 0.0 2.0 0.00 0.29 0.29 79 1011.0
20260904222001 72 292 0.0 2.0 0.00 0.29 0.29 79 1011.0
20260904221459 72 292 0.0 1.0 0.00 0.29 0.29 80 1010.9
20260904220959 72 291 0.0 2.0 0.00 0.29 0.29 80 1010.9
20260904220459 72 291 1.0 2.0 0.00 0.29 0.29 81 1010.9
20260904220003 73 291 1.0 2.0 0.00 0.29 0.29 80 1010.9
20260904214958 73 295 0.0 2.0 0.00 0.29 0.29 78 1010.9
20260904214459 73 296 0.0 3.0 0.00 0.29 0.29 79 1010.9
20260904213959 73 296 1.0 3.0 0.00 0.29 0.29 78 1010.9
20260904213459 73 297 1.0 3.0 0.00 0.29 0.29 78 1010.9
20260904212958 74 297 0.0 3.0 0.00 0.29 0.29 78 1010.9
20260904211459 74 123 0.0 3.0 0.00 0.29 0.29 76 1010.9
20260904211003 74 284 0.0 2.0 0.00 0.29 0.29 76 1010.9
20260904210459 74 284 1.0 3.0 0.00 0.29 0.29 76 1010.9
20260904210002 74 282 2.0 3.0 0.00 0.29 0.29 76 1010.9
20260904205458 74 282 1.0 3.0 0.00 0.29 0.29 76 1011.0
20260904204959 75 281 1.0 5.0 0.00 0.29 0.29 75 1011.0
20260904204459 75 193 2.0 5.0 0.00 0.29 0.29 73 1011.1
20260904203959 75 268 4.0 6.0 0.00 0.29 0.29 75 1011.0
20260904203459 75 277 3.0 6.0 0.00 0.29 0.29 74 1011.0
20260904202959 76 168 2.0 3.0 0.00 0.29 0.29 73 1011.0
20260904202459 76 128 0.0 3.0 0.00 0.29 0.29 72 1010.9
20260904200959 75 301 0.0 8.0 0.00 0.29 0.29 72 1011.0
20260904195459 75 46 3.0 8.0 0.00 0.29 0.29 73 1011.0
20260904194959 76 90 0.0 4.0 0.00 0.29 0.29 71 1011.1
20260904193459 77 42 5.0 9.0 0.00 0.29 0.29 68 1011.1
20260904192959 76 360 1.0 9.0 0.00 0.29 0.29 72 1011.1
20260904192459 76 95 0.0 4.0 0.00 0.29 0.29 74 1011.1
20260904191959 76 249 0.0 6.0 0.00 0.29 0.29 74 1011.2
20260904191459 76 291 1.0 6.0 0.00 0.29 0.29 73 1011.1
20260904190959 76 265 2.0 6.0 0.00 0.29 0.29 75 1011.2
20260904190459 76 5 5.0 6.0 0.00 0.29 0.29 71 1011.2
20260904190001 76 232 0.0 5.0 0.00 0.29 0.29 73 1011.3
20260904185500 76 257 0.0 7.0 0.00 0.29 0.29 73 1011.3
20260904184959 76 101 1.0 4.0 0.00 0.29 0.29 74 1011.4
20260904184459 76 289 0.0 4.0 0.00 0.29 0.29 71 1011.4
20260904183459 78 73 2.0 4.0 0.00 0.29 0.29 67 1011.4
20260904182459 79 257 1.0 6.0 0.00 0.29 0.29 65 1011.4
20260904181959 79 241 0.0 5.0 0.00 0.29 0.29 70 1011.4
20260904181500 78 55 4.0 8.0 0.00 0.29 0.29 71 1011.4
20260904180959 78 286 3.0 9.0 0.00 0.29 0.29 68 1011.4
20260904180459 79 284 8.0 9.0 0.00 0.29 0.29 67 1011.3
20260904175959 79 69 1.0 6.0 0.00 0.29 0.29 66 1011.4
20260904175458 79 171 1.0 9.0 0.00 0.29 0.29 71 1011.3
20260904174958 79 98 3.0 9.0 0.00 0.29 0.29 65 1011.4
20260904174458 78 280 0.0 7.0 0.00 0.29 0.29 69 1011.3
20260904173958 78 275 3.0 7.0 0.00 0.29 0.29 67 1011.2
20260904173501 78 109 2.0 7.0 0.00 0.29 0.29 69 1011.3
20260904172957 78 279 3.0 8.0 0.00 0.29 0.29 70 1011.2
20260904171958 76 105 4.0 7.0 0.00 0.29 0.29 71 1011.4
20260904170958 78 43 3.0 8.0 0.00 0.29 0.29 67 1011.4
20260904170458 78 304 1.0 8.0 0.00 0.29 0.29 69 1011.4
20260904170003 78 290 5.0 8.0 0.00 0.29 0.29 73 1011.4
20260904165459 78 281 1.0 5.0 0.00 0.29 0.29 74 1011.5
20260904164959 77 330 1.0 5.0 0.00 0.29 0.29 77 1011.5
20260904164459 77 132 3.0 4.0 0.00 0.29 0.29 74 1011.5
20260904164002 77 289 0.0 6.0 0.00 0.29 0.29 75 1011.5
20260904163459 76 240 0.0 6.0 0.00 0.29 0.29 74 1011.7
20260904162959 76 299 2.0 7.0 0.00 0.29 0.29 75 1011.4
20260904162459 76 302 1.0 6.0 0.00 0.29 0.29 77 1011.5
20260904161959 76 113 2.0 5.0 0.00 0.29 0.29 77 1011.5
20260904161003 77 310 0.0 7.0 0.00 0.29 0.29 75 1011.5
20260904155958 77 191 1.0 8.0 0.00 0.29 0.29 72 1011.7
20260904155458 76 111 8.0 8.0 0.00 0.29 0.29 74 1011.8
20260904154959 76 254 0.0 4.0 0.00 0.29 0.29 77 1011.8
20260904153958 75 284 1.0 8.0 0.00 0.29 0.29 78 1011.9
20260904153457 75 178 1.0 4.0 0.00 0.29 0.29 83 1011.9
20260904152958 75 273 1.0 6.0 0.00 0.29 0.29 82 1012.0
20260904152458 75 271 2.0 8.0 0.00 0.29 0.29 81 1012.0
20260904151959 74 317 1.0 11.0 0.00 0.29 0.29 80 1012.1
20260904151457 74 289 2.0 11.0 0.00 0.29 0.29 81 1012.1
20260904150958 73 201 2.0 7.0 0.00 0.29 0.29 84 1012.1
20260904150458 73 207 0.0 10.0 0.00 0.29 0.29 87 1012.1
20260904150002 73 286 6.0 6.0 0.00 0.29 0.29 89 1012.1
20260904145459 73 276 1.0 5.0 0.00 0.29 0.29 89 1012.1
20260904144458 73 268 0.0 5.0 0.00 0.29 0.29 89 1012.1
20260904144000 74 223 2.0 5.0 0.00 0.29 0.29 89 1012.1
20260904143459 73 293 0.0 6.0 0.00 0.29 0.29 90 1012.2
20260904143000 73 76 1.0 7.0 0.00 0.29 0.29 91 1012.2
20260904142459 73 59 2.0 4.0 0.00 0.29 0.29 93 1012.3
20260904141459 72 117 1.0 5.0 0.00 0.29 0.29 94 1012.2
20260904140458 71 88 3.0 5.0 0.00 0.29 0.29 95 1012.1
20260904140001 71 5 2.0 3.0 0.00 0.29 0.29 95 1012.1
20260904135500 71 51 0.0 3.0 0.00 0.29 0.29 95 1012.1
20260904134959 71 276 0.0 1.0 0.00 0.29 0.29 96 1012.0
20260904134459 70 276 0.0 1.0 0.00 0.29 0.29 96 1012.0
20260904133959 70 276 0.0 2.0 0.00 0.29 0.29 96 1012.0
20260904133459 70 276 1.0 2.0 0.00 0.29 0.29 96 1012.0
20260904132500 70 275 0.0 2.0 0.00 0.29 0.29 96 1011.9
20260904131959 70 275 1.0 3.0 0.00 0.29 0.29 96 1012.0
20260904131458 69 275 0.0 3.0 0.00 0.29 0.29 96 1012.0
20260904130458 70 275 2.0 3.0 0.00 0.29 0.29 96 1012.1
20260904130002 70 275 2.0 3.0 0.00 0.29 0.29 96 1012.0
20260904125459 70 272 1.0 2.0 0.00 0.29 0.29 96 1011.9
20260904124959 69 272 1.0 2.0 0.00 0.29 0.29 96 1011.9
20260904124500 69 272 1.0 2.0 0.00 0.29 0.29 96 1011.9
20260904123959 69 272 2.0 2.0 0.00 0.29 0.29 96 1011.9
20260904123459 69 272 1.0 2.0 0.00 0.29 0.29 96 1011.9
20260904122959 69 272 1.0 2.0 0.00 0.29 0.29 96 1011.9
20260904121959 69 272 2.0 2.0 0.00 0.29 0.29 96 1011.9
20260904120959 68 272 1.0 2.0 0.00 0.29 0.29 96 1011.9
20260904120459 68 273 2.0 2.0 0.00 0.29 0.29 96 1011.9
20260904120001 68 272 2.0 2.0 0.00 0.29 0.29 96 1011.9
20260904115459 68 272 0.0 0.0 0.00 0.29 0.29 95 1011.9
20260904114959 68 272 0.0 0.0 0.00 0.29 0.29 96 1011.8
20260904114458 68 272 0.0 0.0 0.00 0.29 0.29 95 1011.8
20260904113959 68 273 0.0 1.0 0.00 0.29 0.29 96 1011.6
20260904113459 68 273 0.0 2.0 0.00 0.29 0.29 95 1011.6
20260904112959 68 272 1.0 2.0 0.00 0.29 0.29 95 1011.6
20260904111459 68 272 0.0 2.0 0.00 0.29 0.29 95 1011.4
20260904110959 68 267 1.0 3.0 0.00 0.29 0.29 95 1011.3
20260904105958 68 272 0.0 2.0 0.00 0.29 0.29 95 1011.2
20260904105459 68 272 0.0 3.0 0.00 0.29 0.29 95 1011.3
20260904104459 68 274 0.0 0.0 0.00 0.29 0.29 95 1011.2